C/2015 TQ209 ( LINEAR )

Japanese version
Home page
Updated on May 7, 2016

---------------------------------------------------------------------

* Profile

Discovery Date October 10, 2015
Magnitude 19.2 mag
Discoverer LINEAR survey (Space Surveillance Telescope, Atom Peak, White Sands Missile Range, NM, USA)

* Pictures

* Orbital Elements

Epoch 2016 Sept. 9.0 TT = JDT 2457640.5
T 2016 Aug. 27.58818 TT                                 MPCW
q   1.4129691            (2000.0)            P               Q
z  +0.0006937      Peri.  281.51178     -0.81162616     -0.56778085
 +/-0.0000115      Node   224.08282     +0.58269096     -0.77006812
e   0.9990198      Incl.   11.39357     +0.04164406     -0.29089517
From 256 observations 2015 Oct. 10-2016 Mar. 5, mean residual 0".4.

* Finding Charts

* Magnitudes Graph

        m1 = 10.0 + 5 log d + 10.0 log r

---------------------------------------------------------------------

The orbital elements are published on M.P.E.C. 2016-H35.
The charts are made with StellaNavigator Ver.8 (AstroArts).
The magnitudes graphs are made with Comet for Windows.

---------------------------------------------------------------------

Copyright(C) Seiichi Yoshida (comet@aerith.net). All rights reserved.